SWR5122 LSZH-LSGG

Flight info

Callsign SWR5122
Flight time 0h 33m
Altitude 18000
Route VEBIT T50 ROTOS Z669 ULMES
Aircraft A320/M-SDE3FGHIRWY/LB1

Departure

Time 2026-04-26 11:36
Airport Zürich Airport (LSZH)

Arrival

Time 2026-04-26 12:10
Airport Geneva International Airport (LSGG)
Time Latitude Longitude Altitude Speed Heading
2026-04-26 11:14 47.45422 8.55804 1397 ft 0 kts 186°
2026-04-26 11:28 47.45427 8.55805 1397 ft 3 kts 186°
2026-04-26 11:28 47.45453 8.55809 1388 ft 4 kts 186°
2026-04-26 11:28 47.45480 8.55811 1400 ft 4 kts 168°
2026-04-26 11:29 47.45502 8.55796 1406 ft 4 kts 120°
2026-04-26 11:29 47.45507 8.55768 1402 ft 4 kts 96°
2026-04-26 11:29 47.45508 8.55754 1403 ft 0 kts 96°
2026-04-26 11:32 47.45505 8.55797 1404 ft 7 kts 96°
2026-04-26 11:32 47.45498 8.55898 1400 ft 11 kts 96°
2026-04-26 11:32 47.45489 8.56023 1401 ft 13 kts 96°
2026-04-26 11:33 47.45481 8.56141 1397 ft 10 kts 96°
2026-04-26 11:33 47.45497 8.56249 1405 ft 12 kts 53°
2026-04-26 11:33 47.45552 8.56351 1400 ft 13 kts 51°
2026-04-26 11:33 47.45588 8.56419 1404 ft 8 kts 56°
2026-04-26 11:34 47.45592 8.56501 1401 ft 9 kts 97°
2026-04-26 11:34 47.45585 8.56599 1399 ft 10 kts 95°
2026-04-26 11:34 47.45578 8.56712 1406 ft 12 kts 96°
2026-04-26 11:34 47.45568 8.56844 1399 ft 13 kts 96°
2026-04-26 11:35 47.45562 8.56937 1400 ft 9 kts 92°
2026-04-26 11:35 47.45588 8.57010 1409 ft 7 kts 29°
2026-04-26 11:35 47.45620 8.57022 1406 ft 4 kts
2026-04-26 11:35 47.45657 8.57016 1413 ft 6 kts 330°
2026-04-26 11:36 47.45668 8.56924 1406 ft 22 kts 276°
2026-04-26 11:36 47.45714 8.56270 1405 ft 103 kts 275°
2026-04-26 11:36 47.45814 8.54900 1411 ft 161 kts 276°
2026-04-26 11:36 47.45931 8.53237 2054 ft 162 kts 281°
2026-04-26 11:37 47.46046 8.51567 2853 ft 165 kts 281°
2026-04-26 11:37 47.46168 8.49803 3337 ft 184 kts 278°
2026-04-26 11:37 47.46064 8.47813 3765 ft 210 kts 250°
2026-04-26 11:37 47.45081 8.46146 4021 ft 233 kts 212°
2026-04-26 11:38 47.43721 8.44603 4478 ft 259 kts 225°
2026-04-26 11:38 47.42485 8.42565 5148 ft 273 kts 229°
2026-04-26 11:38 47.41315 8.40316 6207 ft 277 kts 234°
2026-04-26 11:38 47.40232 8.37931 7203 ft 281 kts 237°
2026-04-26 11:39 47.39171 8.35488 8160 ft 284 kts 237°
2026-04-26 11:39 47.38252 8.32877 9122 ft 289 kts 245°
2026-04-26 11:39 47.37374 8.30192 10097 ft 293 kts 244°
2026-04-26 11:39 47.36438 8.27457 10691 ft 309 kts 243°
2026-04-26 11:40 47.35410 8.24526 11035 ft 334 kts 243°
2026-04-26 11:40 47.34304 8.21423 11589 ft 347 kts 243°
2026-04-26 11:40 47.33166 8.18252 12382 ft 352 kts 243°
2026-04-26 11:40 47.32027 8.15086 13230 ft 355 kts 243°
2026-04-26 11:41 47.30867 8.11849 14084 ft 359 kts 244°
2026-04-26 11:42 47.23335 7.87936 18193 ft 386 kts 249°
2026-04-26 11:43 47.22302 7.84246 18193 ft 393 kts 249°
2026-04-26 11:43 47.21254 7.80524 18193 ft 393 kts 248°
2026-04-26 11:43 47.20202 7.76807 18172 ft 394 kts 249°
2026-04-26 11:43 47.19065 7.73148 18173 ft 395 kts 242°
2026-04-26 11:44 47.17530 7.69795 18177 ft 396 kts 233°
2026-04-26 11:44 47.15811 7.66634 18176 ft 395 kts 232°
2026-04-26 11:44 47.14117 7.63506 18179 ft 396 kts 233°
2026-04-26 11:44 47.12402 7.60332 18166 ft 397 kts 233°
2026-04-26 11:45 47.10684 7.57151 18179 ft 398 kts 233°
2026-04-26 11:45 47.08965 7.53967 18181 ft 398 kts 232°
2026-04-26 11:45 47.07241 7.50779 18178 ft 398 kts 233°
2026-04-26 11:45 47.05518 7.47601 18172 ft 398 kts 233°
2026-04-26 11:46 47.03793 7.44428 18170 ft 398 kts 233°
2026-04-26 11:46 47.02069 7.41254 18169 ft 398 kts 233°
2026-04-26 11:46 47.00339 7.38083 18167 ft 398 kts 232°
2026-04-26 11:46 46.98609 7.34923 18175 ft 397 kts 233°
2026-04-26 11:47 46.96900 7.31809 18180 ft 397 kts 233°
2026-04-26 11:47 46.95167 7.28657 18178 ft 397 kts 232°
2026-04-26 11:47 46.93439 7.25511 18168 ft 397 kts 233°
2026-04-26 11:47 46.91710 7.22363 18172 ft 396 kts 232°
2026-04-26 11:48 46.89987 7.19221 18187 ft 397 kts 232°
2026-04-26 11:48 46.88259 7.16071 18185 ft 397 kts 232°
2026-04-26 11:48 46.86529 7.12923 18192 ft 397 kts 233°
2026-04-26 11:48 46.84797 7.09780 18193 ft 397 kts 233°
2026-04-26 11:49 46.83065 7.06643 18186 ft 397 kts 232°
2026-04-26 11:49 46.81328 7.03504 18193 ft 397 kts 233°
2026-04-26 11:49 46.79594 7.00367 18196 ft 396 kts 233°
2026-04-26 11:49 46.77863 6.97234 18193 ft 396 kts 232°
2026-04-26 11:50 46.76132 6.94107 18194 ft 396 kts 232°
2026-04-26 11:50 46.74421 6.91018 18183 ft 397 kts 232°
2026-04-26 11:50 46.72687 6.87886 18177 ft 397 kts 232°
2026-04-26 11:50 46.70947 6.84749 18171 ft 398 kts 232°
2026-04-26 11:51 46.69205 6.81614 18169 ft 398 kts 232°
2026-04-26 11:51 46.67458 6.78477 18167 ft 398 kts 232°
2026-04-26 11:51 46.65844 6.75203 18163 ft 398 kts 240°
2026-04-26 11:51 46.64633 6.71597 18161 ft 397 kts 249°
2026-04-26 11:52 46.63580 6.67888 18167 ft 396 kts 248°
2026-04-26 11:52 46.62881 6.65438 18164 ft 397 kts 248°
2026-04-26 11:52 46.61459 6.60469 18164 ft 397 kts 248°
2026-04-26 11:52 46.60396 6.56769 18082 ft 393 kts 248°
2026-04-26 11:53 46.59357 6.53161 17809 ft 382 kts 248°
2026-04-26 11:53 46.58355 6.49687 17414 ft 375 kts 248°
2026-04-26 11:53 46.57349 6.46213 16886 ft 371 kts 248°
2026-04-26 11:54 46.55360 6.39352 15873 ft 366 kts 248°
2026-04-26 11:54 46.54294 6.35997 15354 ft 365 kts 240°
2026-04-26 11:54 46.52830 6.32994 14926 ft 364 kts 230°
2026-04-26 11:54 46.51067 6.30349 14640 ft 365 kts 226°
2026-04-26 11:55 46.49288 6.27727 14308 ft 364 kts 226°
2026-04-26 11:55 46.47518 6.25110 13998 ft 363 kts 226°
2026-04-26 11:55 46.45752 6.22498 13649 ft 362 kts 226°
2026-04-26 11:55 46.44012 6.19926 13327 ft 361 kts 226°
2026-04-26 11:56 46.42257 6.17334 13015 ft 360 kts 226°
2026-04-26 11:56 46.40503 6.14750 12713 ft 359 kts 226°
2026-04-26 11:56 46.38751 6.12174 12404 ft 358 kts 225°
2026-04-26 11:56 46.37003 6.09607 12092 ft 358 kts 225°
2026-04-26 11:57 46.35258 6.07052 11780 ft 356 kts 225°
2026-04-26 11:57 46.33518 6.04508 11471 ft 354 kts 225°
2026-04-26 11:57 46.31785 6.01976 11156 ft 353 kts 225°
2026-04-26 11:57 46.30061 5.99456 10857 ft 349 kts 225°
2026-04-26 11:58 46.28385 5.97013 10729 ft 335 kts 225°
2026-04-26 11:58 46.26772 5.94664 10610 ft 324 kts 225°
2026-04-26 11:58 46.25211 5.92386 10485 ft 314 kts 225°
2026-04-26 11:58 46.23700 5.90189 10310 ft 304 kts 225°
2026-04-26 11:59 46.22224 5.88046 10124 ft 297 kts 225°
2026-04-26 11:59 46.20760 5.85921 9949 ft 297 kts 225°
2026-04-26 11:59 46.19312 5.83817 9679 ft 294 kts 225°
2026-04-26 11:59 46.17889 5.81749 9415 ft 294 kts 225°
2026-04-26 12:00 46.16447 5.79655 9137 ft 294 kts 225°
2026-04-26 12:00 46.15007 5.77563 8863 ft 292 kts 225°
2026-04-26 12:00 46.13606 5.75529 8714 ft 276 kts 225°
2026-04-26 12:00 46.12291 5.73623 8406 ft 264 kts 225°
2026-04-26 12:01 46.11006 5.71766 8170 ft 257 kts 225°
2026-04-26 12:01 46.09745 5.69946 8112 ft 258 kts 225°
2026-04-26 12:01 46.08470 5.68115 7991 ft 264 kts 223°
2026-04-26 12:01 46.06868 5.66712 7835 ft 269 kts 195°
2026-04-26 12:02 46.05056 5.66552 7608 ft 258 kts 166°
2026-04-26 12:02 46.03972 5.67148 7462 ft 249 kts 146°
2026-04-26 12:02 46.02537 5.69558 7168 ft 233 kts 116°
2026-04-26 12:02 46.01824 5.71610 6957 ft 223 kts 113°
2026-04-26 12:03 46.01189 5.73540 6941 ft 207 kts 112°
2026-04-26 12:03 46.00818 5.75478 6929 ft 199 kts 89°
2026-04-26 12:03 46.01075 5.77390 6929 ft 195 kts 64°
2026-04-26 12:03 46.01867 5.78926 6928 ft 195 kts 44°
2026-04-26 12:04 46.02823 5.80304 6827 ft 192 kts 45°
2026-04-26 12:04 46.03761 5.81663 6630 ft 190 kts 45°
2026-04-26 12:04 46.04695 5.83017 6398 ft 191 kts 45°
2026-04-26 12:04 46.05631 5.84376 6124 ft 190 kts 45°
2026-04-26 12:05 46.06556 5.85719 5880 ft 188 kts 44°
2026-04-26 12:05 46.07480 5.87061 5634 ft 189 kts 44°
2026-04-26 12:05 46.08408 5.88410 5376 ft 190 kts 44°
2026-04-26 12:05 46.09336 5.89761 5145 ft 189 kts 44°
2026-04-26 12:06 46.10262 5.91107 4903 ft 190 kts 44°
2026-04-26 12:06 46.11199 5.92470 4631 ft 192 kts 45°
2026-04-26 12:06 46.12134 5.93833 4372 ft 191 kts 44°
2026-04-26 12:06 46.13065 5.95190 4135 ft 190 kts 44°
2026-04-26 12:07 46.13975 5.96517 3893 ft 189 kts 44°
2026-04-26 12:07 46.14898 5.97864 3657 ft 190 kts 44°
2026-04-26 12:07 46.15821 5.99210 3393 ft 183 kts 44°
2026-04-26 12:07 46.16673 6.00456 3171 ft 167 kts 44°
2026-04-26 12:08 46.17453 6.01601 2838 ft 154 kts 45°
2026-04-26 12:08 46.18174 6.02656 2670 ft 143 kts 44°
2026-04-26 12:08 46.18874 6.03677 2491 ft 142 kts 44°
2026-04-26 12:08 46.19562 6.04677 2330 ft 138 kts 44°
2026-04-26 12:09 46.20230 6.05653 2172 ft 137 kts 44°
2026-04-26 12:09 46.20908 6.06648 1974 ft 141 kts 46°
2026-04-26 12:09 46.21594 6.07658 1792 ft 142 kts 43°
2026-04-26 12:09 46.22294 6.08675 1585 ft 142 kts 44°
2026-04-26 12:10 46.22978 6.09683 1421 ft 137 kts 45°
2026-04-26 12:10 46.23552 6.10524 1384 ft 94 kts 45°
2026-04-26 12:10 46.23886 6.11014 1378 ft 45 kts 45°
2026-04-26 12:10 46.24039 6.11238 1375 ft 29 kts 45°
2026-04-26 12:11 46.24179 6.11442 1375 ft 29 kts 46°
2026-04-26 12:11 46.24295 6.11672 1372 ft 25 kts 65°
2026-04-26 12:11 46.24321 6.11771 1368 ft 9 kts 71°
2026-04-26 12:11 46.24336 6.11846 1365 ft 7 kts 75°
2026-04-26 12:12 46.24334 6.11923 1364 ft 9 kts 122°
2026-04-26 12:12 46.24274 6.11916 1361 ft 11 kts 221°
2026-04-26 12:12 46.24240 6.11866 1362 ft 10 kts 226°
2026-04-26 12:12 46.24198 6.11803 1363 ft 7 kts 225°
2026-04-26 12:13 46.24170 6.11762 1365 ft 4 kts 225°
2026-04-26 12:13 46.24147 6.11728 1366 ft 7 kts 226°
2026-04-26 12:13 46.24106 6.11668 1367 ft 7 kts 225°
2026-04-26 12:13 46.24078 6.11627 1369 ft 4 kts 225°
2026-04-26 12:14 46.24066 6.11609 1369 ft 4 kts 225°
2026-04-26 12:14 46.24043 6.11575 1370 ft 5 kts 226°
2026-04-26 12:14 46.24015 6.11534 1371 ft 6 kts 225°
2026-04-26 12:14 46.23981 6.11486 1372 ft 7 kts 225°
2026-04-26 12:15 46.23944 6.11431 1374 ft 8 kts 225°
2026-04-26 12:15 46.23902 6.11370 1374 ft 9 kts 225°
2026-04-26 12:15 46.23855 6.11302 1374 ft 10 kts 225°
2026-04-26 12:15 46.23802 6.11222 1376 ft 12 kts 226°
2026-04-26 12:16 46.23749 6.11144 1382 ft 10 kts 225°
2026-04-26 12:16 46.23710 6.11086 1385 ft 6 kts 226°
2026-04-26 12:16 46.23682 6.11045 1386 ft 6 kts 225°
2026-04-26 12:16 46.23644 6.10991 1387 ft 9 kts 224°
2026-04-26 12:17 46.23587 6.10907 1388 ft 14 kts 226°
2026-04-26 12:17 46.23517 6.10803 1390 ft 14 kts 225°
2026-04-26 12:17 46.23450 6.10706 1399 ft 13 kts 225°
2026-04-26 12:17 46.23400 6.10638 1403 ft 9 kts 217°
2026-04-26 12:18 46.23357 6.10580 1395 ft 8 kts 226°
2026-04-26 12:18 46.23317 6.10521 1400 ft 8 kts 225°
2026-04-26 12:18 46.23279 6.10465 1401 ft 8 kts 225°
2026-04-26 12:18 46.23239 6.10408 1398 ft 8 kts 225°
2026-04-26 12:19 46.23196 6.10351 1396 ft 8 kts 208°
2026-04-26 12:19 46.23147 6.10377 1399 ft 8 kts 137°
2026-04-26 12:19 46.23102 6.10439 1397 ft 9 kts 135°
2026-04-26 12:19 46.23053 6.10480 1394 ft 8 kts 191°
2026-04-26 12:20 46.23012 6.10432 1399 ft 7 kts 225°
2026-04-26 12:20 46.22987 6.10404 1398 ft 3 kts 197°
2026-04-26 12:20 46.22973 6.10415 1393 ft 2 kts 147°
2026-04-26 12:20 46.22963 6.10427 1398 ft 2 kts 136°
2026-04-26 12:21 46.22956 6.10439 1394 ft 1 kts 135°
2026-04-26 12:21 46.22949 6.10448 1398 ft 1 kts 135°
2026-04-26 12:21 46.22945 6.10454 1398 ft 0 kts 135°